Eko 4 — SVAR8 — position and weather

sailwx.info

Track history (hours):
 
Tides and Currents Weather Stations Pressure Air Temp Water Temp Dewpoint Dewpoint Depression Visibility Wind Speed Wind Dir Waves Ship Positions

Eko 4

Last reported at 2014-Oct-30 11:26 UTC. Time now 2014-Oct-30 12:14 UTC.
Position N 37°39' E 024°11'.

Length 88 m; draft 5.5 m.

Type: Ship (hazmat cat A). MMSI: 240912000.

Date/timePositionNaut miles runAvg speedWind from/ knotsBaromVisibWave heightAir tempDewpointWater temp
2014-Oct-30 11:26N 37°39' E 024°11'2010.8
2014-Oct-30 09:33N 37°52' E 024°30'  
2014-Oct-25 09:23N 37°53' E 024°31'2010.2
2014-Oct-25 07:28N 37°40' E 024°12'12 9.9
2014-Oct-25 06:13N 37°35' E 023°58'6 9.1
2014-Oct-25 05:30N 37°37' E 023°50'9 9.4
2014-Oct-25 04:33N 37°42' E 023°41'8 8.3
2014-Oct-25 03:33N 37°48' E 023°34'2 1.6
2014-Oct-25 02:31N 37°47' E 023°32'0 0.0
2014-Oct-25 01:31N 37°47' E 023°32'0 0.0
2014-Oct-25 00:31N 37°47' E 023°32'0 0.0
2014-Oct-24 23:31N 37°47' E 023°32'0 0.0
2014-Oct-24 22:31N 37°47' E 023°32'0 0.0
2014-Oct-24 21:28N 37°47' E 023°32'0 0.0
2014-Oct-24 20:31N 37°47' E 023°32'0 0.0
2014-Oct-24 19:31N 37°47' E 023°32'0 0.0
2014-Oct-24 18:30N 37°47' E 023°32'0 0.0
2014-Oct-24 17:33N 37°47' E 023°32'0 0.1
2014-Oct-24 16:33N 37°47' E 023°32'0 0.0
2014-Oct-24 15:33N 37°47' E 023°32'0 0.0
2014-Oct-24 14:33N 37°47' E 023°32'0 0.0
2014-Oct-24 13:33N 37°47' E 023°32'0 0.0
2014-Oct-24 12:33N 37°47' E 023°32'0 0.1
2014-Oct-24 11:33N 37°47' E 023°32'0 0.0
2014-Oct-24 10:34N 37°47' E 023°32'0 0.1
2014-Oct-24 09:30N 37°47' E 023°31'0 0.0
2014-Oct-24 08:30N 37°47' E 023°31'0 0.0
2014-Oct-24 07:24N 37°47' E 023°32'3 3.5
2014-Oct-24 06:33N 37°49' E 023°34'8 7.7
2014-Oct-24 05:33N 37°57' E 023°35'5 4.7
2014-Oct-24 04:30N 38°02' E 023°32'0 0.0
2014-Oct-24 03:30N 38°02' E 023°32'0 0.0
2014-Oct-24 02:30N 38°02' E 023°32'0 0.0
2014-Oct-24 01:24N 38°02' E 023°32'0 0.0
2014-Oct-24 00:24N 38°02' E 023°32'0 0.0
2014-Oct-23 23:30N 38°02' E 023°32'0 0.0
2014-Oct-23 22:30N 38°02' E 023°32'0 0.0
2014-Oct-23 21:30N 38°02' E 023°32'0 0.0
2014-Oct-23 20:30N 38°02' E 023°32'0 0.0
2014-Oct-23 19:30N 38°02' E 023°32'0 0.0
2014-Oct-23 18:30N 38°02' E 023°32'0 0.1
2014-Oct-23 17:30N 38°02' E 023°32'0 0.0
2014-Oct-23 16:30N 38°02' E 023°32'1 1.4
2014-Oct-23 15:33N 38°01' E 023°34'1 0.5
2014-Oct-23 12:23N 38°02' E 023°36'0 0.0
2014-Oct-23 09:29N 38°02' E 023°36'0 0.0
2014-Oct-23 08:29N 38°02' E 023°36'0 0.0
2014-Oct-23 07:29N 38°02' E 023°36'0 0.0
2014-Oct-22 17:33N 38°02' E 023°36'2 2.5
2014-Oct-22 16:33N 38°01' E 023°33'7 6.9
2014-Oct-22 15:33N 37°55' E 023°37'9 8.9
2014-Oct-22 14:33N 37°47' E 023°42'19 9.1
2014-Oct-22 12:27N 37°36' E 024°02'  
Track history (hours):
 
Tides and Currents Weather Stations Pressure Air Temp Water Temp Dewpoint Dewpoint Depression Visibility Wind Speed Wind Dir Waves Ship Positions

Eko 4

Last reported at 2014-Oct-30 11:26 UTC. Time now 2014-Oct-30 12:14 UTC.
Position N 37°39' E 024°11'.

Length 88 m; draft 5.5 m.

Type: Ship (hazmat cat A). MMSI: 240912000.

Date/timePositionNaut miles runAvg speedWind from/ knotsBaromVisibWave heightAir tempDewpointWater temp
2014-Oct-30 11:26N 37°39' E 024°11'2010.8
2014-Oct-30 09:33N 37°52' E 024°30'  
2014-Oct-25 09:23N 37°53' E 024°31'2010.2
2014-Oct-25 07:28N 37°40' E 024°12'12 9.9
2014-Oct-25 06:13N 37°35' E 023°58'6 9.1
2014-Oct-25 05:30N 37°37' E 023°50'9 9.4
2014-Oct-25 04:33N 37°42' E 023°41'8 8.3
2014-Oct-25 03:33N 37°48' E 023°34'2 1.6
2014-Oct-25 02:31N 37°47' E 023°32'0 0.0
2014-Oct-25 01:31N 37°47' E 023°32'0 0.0
2014-Oct-25 00:31N 37°47' E 023°32'0 0.0
2014-Oct-24 23:31N 37°47' E 023°32'0 0.0
2014-Oct-24 22:31N 37°47' E 023°32'0 0.0
2014-Oct-24 21:28N 37°47' E 023°32'0 0.0
2014-Oct-24 20:31N 37°47' E 023°32'0 0.0
2014-Oct-24 19:31N 37°47' E 023°32'0 0.0
2014-Oct-24 18:30N 37°47' E 023°32'0 0.0
2014-Oct-24 17:33N 37°47' E 023°32'0 0.1
2014-Oct-24 16:33N 37°47' E 023°32'0 0.0
2014-Oct-24 15:33N 37°47' E 023°32'0 0.0
2014-Oct-24 14:33N 37°47' E 023°32'0 0.0
2014-Oct-24 13:33N 37°47' E 023°32'0 0.0
2014-Oct-24 12:33N 37°47' E 023°32'0 0.1
2014-Oct-24 11:33N 37°47' E 023°32'0 0.0
2014-Oct-24 10:34N 37°47' E 023°32'0 0.1
2014-Oct-24 09:30N 37°47' E 023°31'0 0.0
2014-Oct-24 08:30N 37°47' E 023°31'0 0.0
2014-Oct-24 07:24N 37°47' E 023°32'3 3.5
2014-Oct-24 06:33N 37°49' E 023°34'8 7.7
2014-Oct-24 05:33N 37°57' E 023°35'5 4.7
2014-Oct-24 04:30N 38°02' E 023°32'0 0.0
2014-Oct-24 03:30N 38°02' E 023°32'0 0.0
2014-Oct-24 02:30N 38°02' E 023°32'0 0.0
2014-Oct-24 01:24N 38°02' E 023°32'0 0.0
2014-Oct-24 00:24N 38°02' E 023°32'0 0.0
2014-Oct-23 23:30N 38°02' E 023°32'0 0.0
2014-Oct-23 22:30N 38°02' E 023°32'0 0.0
2014-Oct-23 21:30N 38°02' E 023°32'0 0.0
2014-Oct-23 20:30N 38°02' E 023°32'0 0.0
2014-Oct-23 19:30N 38°02' E 023°32'0 0.0
2014-Oct-23 18:30N 38°02' E 023°32'0 0.1
2014-Oct-23 17:30N 38°02' E 023°32'0 0.0
2014-Oct-23 16:30N 38°02' E 023°32'1 1.4
2014-Oct-23 15:33N 38°01' E 023°34'1 0.5
2014-Oct-23 12:23N 38°02' E 023°36'0 0.0
2014-Oct-23 09:29N 38°02' E 023°36'0 0.0
2014-Oct-23 08:29N 38°02' E 023°36'0 0.0
2014-Oct-23 07:29N 38°02' E 023°36'0 0.0
2014-Oct-22 17:33N 38°02' E 023°36'2 2.5
2014-Oct-22 16:33N 38°01' E 023°33'7 6.9
2014-Oct-22 15:33N 37°55' E 023°37'9 8.9
2014-Oct-22 14:33N 37°47' E 023°42'19 9.1
2014-Oct-22 12:27N 37°36' E 024°02'  

Dump ship's entire track history